Home > Weather > Atlantic City > Past weeks

Flag for USA Past Weather in Atlantic City, New Jersey, USA — Yesterday and Last 2 Weeks

Now
78 °F

Sunny.


Feels Like: 79 °F
Forecast: 63 / 76 °F
Wind: 8 mph from Southeast

Location: Atlantic City International Airport

Current Time: Jun 26, 2016 at 1:17:13 PM

Latest Report: Jun 26, 2016 at 11:54 AM


Visibility: 10 mi

Pressure: 30.24 "Hg

Humidity: 43%

Dew Point: 54 °F

Location of Atlantic CityLocation

Past Weather in Atlantic City — Graph

°F

Atlantic City Temperature Yesterday

Maximum temperature yesterday: 80 °F (at 12:54 PM)
Minimum temperature yesterday: 61 °F (at 11:54 PM)
Average temperature yesterday: 70 °F

High & Low Weather Summary for the Past Weeks

 TemperatureHumidityPressure
High92 °F (Jun 12, 1:54 PM)100% (Jun 22, 4:54 AM)30.32 "Hg (Jun 22, 4:54 AM)
Low51 °F (Jun 18, 3:54 AM)15% (Jun 12, 3:54 PM)29.61 "Hg (Jun 12, 2:54 PM)
Average72 °F65%29.96 "Hg
* Reported Jun 11 11:54 AM — Jun 26 11:54 AM, Atlantic City, Weather by CustomWeather, © 2016

Note: Actual official high and low records may vary slightly from our data, if they occured in-between our weather recording intervals... More about our weather records

Advertising

Atlantic City Weather History for the Previous 24 Hours

Scroll right to see more
 ConditionsComfort  
Time TempWeatherWind HumidityBarometerVisibility
11:54 AM
Sun, Jun 26
78 °FSunny.8 mph43%30.24 "Hg10 mi
10:54 AM77 °FSunny.7 mph50%30.23 "Hg10 mi
9:54 AM75 °FSunny.No wind50%30.23 "Hg10 mi
8:54 AM72 °FSunny.No wind59%30.23 "Hg10 mi
7:54 AM68 °FSunny.No wind82%30.23 "Hg10 mi
6:54 AM61 °FSunny.No wind90%30.23 "Hg10 mi
5:54 AM60 °FClear.No wind90%30.23 "Hg9 mi
4:54 AM56 °FClear.No wind97%30.24 "Hg7 mi
3:54 AM58 °FClear.No wind93%30.23 "Hg9 mi
2:54 AM59 °FClear.3 mph90%30.21 "Hg10 mi
1:54 AM58 °FClear.No wind93%30.21 "Hg10 mi
12:54 AM60 °FClear.N/A93%30.20 "Hg10 mi
11:54 PM
Sat, Jun 25
61 °FClear.N/A90%30.21 "Hg10 mi
10:54 PM63 °FClear.No wind87%30.21 "Hg10 mi
9:54 PM63 °FClear.No wind87%30.20 "Hg10 mi
8:54 PM65 °FSunny.5 mph81%30.19 "Hg10 mi
7:54 PM69 °FSunny.7 mph68%30.19 "Hg10 mi
6:54 PM74 °FSunny.8 mph57%30.18 "Hg10 mi
5:54 PM76 °FSunny.8 mph50%30.18 "Hg10 mi
4:54 PM78 °FSunny.13 mph40%30.18 "Hg10 mi
3:54 PM78 °FSunny.10 mph42%30.17 "Hg10 mi
2:54 PM80 °FSunny.13 mph35%30.18 "Hg10 mi
1:54 PM80 °FSunny.14 mph35%30.18 "Hg10 mi
Weather by CustomWeather, © 2016

See weather overviewHow to use our weather pages